"Pseudo-MPEC" for P22n0fO

Created 2026 May 8 1:35:07 UT using Find_Orb

Click here for an explanation of pseudo-MPECs

 
 Astrometry: 
     P22n0fO*0C2026 05 07.37093215 02 34.297+12 24 10.97   ~57B5 20.00wXNEOCPF52
     P22n0fO 0C2026 05 07.38302015 02 57.538+12 22 47.61   ~57B5 19.99wXNEOCPF52
     P22n0fO 0C2026 05 07.39515915 03 20.760+12 21 23.94   ~57B5 19.53wXNEOCPF52
     P22n0fO 0C2026 05 07.40728415 03 43.870+12 19 59.98   ~57B5 19.93wXNEOCPF52
     P22n0fO 1C2026 05 07.46785515 05 25.562+12 11 22.52   ~57BZ 19.69GVNEOCPI52
     P22n0fO 1C2026 05 07.46865015 05 27.110+12 11 16.69   ~57BZ 19.77GVNEOCPI52
     P22n0fO 1C2026 05 07.46944915 05 28.662+12 11 11.29   ~57BZ 19.73GVNEOCPI52
     P22n0fO 1C2026 05 07.47024515 05 30.170+12 11 05.17   ~57BZ 19.95GVNEOCPI52
     P22n0fO 0C2026 05 07.49324715 06 25.377+12 09 56.57   ~57GZ 19.84GVNEOCPF52

Station data:
(F52) Pan-STARRS 2, Haleakala  (N20.707382 W156.255910)  US/Hawaii.
   Observers J. Herman, T. Lowe, P. Minguez, A. Schultz, I. Smith. Measurers
   K. Chambers, T. de Boer, J. Fairlamb, H. Gao, M. Huber, C.-C. Lin, E.
   Magnier, Y. Ramanjooloo, R. Wainscoat, R. Weryk. 1.8-m Ritchey-Chrétien +
   CCD.
(I52) Steward Observatory, Mt. Lemmon Station  (N32.442570 W110.788920)
   US/Arizona. Measurers T. Beuden, V. F. Carvajal, D. Fay, J. B. Fazekas, D.
   C. Fuls, A. R. Gibbs, A. D. Grauer, H. Gröller, J. K. Hogan, R. A.
   Kowalski, S. M. Larson, G. J. Leonard, D. Rankin, R. L. Seaman, F. C.
   Shelly, K. W. Wierzchoś. 1.0-m prime focus + CCD.

Orbital elements:  P22n0fO
   Perihelion 2026 Apr 15.316288 +/- 0.573 TT =  7:35:27.2 (JD 2461145.816288)
Epoch 2026 May  7.0 TT = JDT 2461167.5   Earth MOID: 0.0037      AutoNEOCP
M   7.093646935 +/- 0.16            (J2000 ecliptic)
n   0.327141720 +/- 0.00127         Peri.  341.381828 +/- 0.9
a   2.085989382 +/- 0.00541         Node   218.530775 +/- 0.24
e   0.52344009 +/- 0.00211          Incl.    4.937702 +/- 0.14
P   3.01278                H 26.58  G  0.15   U  8.3
q 0.994098897 +/- 0.00217    Q 3.177879867 +/- 0.0125
From 9 observations 2026 May 7 (2.9 hr); mean residual 0".13
Residuals in arcseconds: 
260507 F52  .04+  .03+    260507 F52  .11+  .08+    260507 I52  .18+  .28+    
260507 F52  .02-  .12-    260507 I52  .01+  .08-    260507 I52  .32-  .05-    
260507 F52  .11-  .04+    260507 I52  .13+  .13-    260507 F52  .00   .02-    

Ephemerides (geocentric):
Date (UTC) HH   RA             Dec           delta  r     elong  mag " sig PA
---- --------  ------------   ------------  ------ ------ -----  --- --------
2026 05 08 02  15 24 39.640   +11 04 57.52  .02760 1.0334 151.2 20.1 48.3 105
2026 05 08 03  15 25 50.135   +11 00 30.44  .02774 1.0336 151.2 20.1 54.2 105
2026 05 08 04  15 26 59.854   +10 56 05.05  .02789 1.0337 151.2 20.1 60.4 105
2026 05 08 05  15 28 08.806   +10 51 41.34  .02804 1.0338 151.2 20.1 66.9 105
2026 05 08 06  15 29 17.001   +10 47 19.34  .02818 1.0340 151.2 20.1 73.6 105
2026 05 08 07  15 30 24.447   +10 42 59.05  .02833 1.0341 151.2 20.2 80.5 105
2026 05 08 08  15 31 31.153   +10 38 40.48  .02848 1.0343 151.2 20.2 87.7 105
2026 05 08 09  15 32 37.128   +10 34 23.62  .02863 1.0344 151.2 20.2 95.1 105
2026 05 08 10  15 33 42.381   +10 30 08.50  .02878 1.0346 151.2 20.2  103 105
2026 05 08 11  15 34 46.919   +10 25 55.11  .02893 1.0347 151.2 20.2  110 105
2026 05 08 12  15 35 50.753   +10 21 43.45  .02908 1.0348 151.2 20.2  119 105
2026 05 08 13  15 36 53.891   +10 17 33.53  .02924 1.0350 151.2 20.2  127 105
2026 05 08 14  15 37 56.340   +10 13 25.34  .02939 1.0351 151.2 20.2  135 105
2026 05 08 15  15 38 58.110   +10 09 18.90  .02954 1.0353 151.2 20.2  144 105
2026 05 08 16  15 39 59.208   +10 05 14.19  .02970 1.0354 151.1 20.3  152 105
2026 05 08 17  15 40 59.644   +10 01 11.22  .02985 1.0355 151.1 20.3  161 105
2026 05 08 18  15 41 59.425   +09 57 09.99  .03001 1.0357 151.1 20.3  170 105
2026 05 08 19  15 42 58.560   +09 53 10.49  .03017 1.0358 151.1 20.3  179 105
2026 05 08 20  15 43 57.055   +09 49 12.72  .03032 1.0360 151.1 20.3  189 105
2026 05 08 21  15 44 54.921   +09 45 16.68  .03048 1.0361 151.0 20.3  198 105
2026 05 08 22  15 45 52.164   +09 41 22.36  .03064 1.0363 151.0 20.3  208 105
2026 05 08 23  15 46 48.792   +09 37 29.76  .03080 1.0364 151.0 20.3  217 105
2026 05 09 00  15 47 44.813   +09 33 38.87  .03096 1.0366 151.0 20.4  227 106
2026 05 09 01  15 48 40.234   +09 29 49.68  .03112 1.0367 151.0 20.4  237 106
2026 05 09 02  15 49 35.064   +09 26 02.20  .03128 1.0368 150.9 20.4  247 106
2026 05 09 03  15 50 29.310   +09 22 16.41  .03144 1.0370 150.9 20.4  257 106
2026 05 09 04  15 51 22.979   +09 18 32.31  .03160 1.0371 150.9 20.4  267 106
2026 05 09 05  15 52 16.078   +09 14 49.89  .03176 1.0373 150.8 20.4  277 106
2026 05 09 06  15 53 08.615   +09 11 09.14  .03192 1.0374 150.8 20.4  288 106
2026 05 09 07  15 54 00.597   +09 07 30.06  .03209 1.0376 150.8 20.4  298 106
2026 05 09 08  15 54 52.030   +09 03 52.63  .03225 1.0377 150.8 20.5  308 106
2026 05 09 09  15 55 42.923   +09 00 16.85  .03241 1.0379 150.7 20.5  319 106
2026 05 09 10  15 56 33.282   +08 56 42.70  .03258 1.0380 150.7 20.5  329 106
2026 05 09 11  15 57 23.113   +08 53 10.19  .03274 1.0382 150.7 20.5  340 106
2026 05 09 12  15 58 12.424   +08 49 39.29  .03291 1.0383 150.6 20.5  351 106
2026 05 09 13  15 59 01.221   +08 46 10.00  .03307 1.0384 150.6 20.5  361 106
2026 05 09 14  15 59 49.510   +08 42 42.32  .03324 1.0386 150.6 20.5  372 106
2026 05 09 15  16 00 37.299   +08 39 16.22  .03341 1.0387 150.5 20.5  383 106
2026 05 09 16  16 01 24.594   +08 35 51.70  .03357 1.0389 150.5 20.5  394 106
2026 05 09 17  16 02 11.400   +08 32 28.75  .03374 1.0390 150.5 20.6  405 106
2026 05 09 18  16 02 57.725   +08 29 07.36  .03391 1.0392 150.4 20.6  416 106
2026 05 09 19  16 03 43.573   +08 25 47.51  .03408 1.0393 150.4 20.6  427 106
2026 05 09 20  16 04 28.953   +08 22 29.20  .03425 1.0395 150.4 20.6  437 106
2026 05 09 21  16 05 13.869   +08 19 12.41  .03441 1.0396 150.3 20.6  448 106
2026 05 09 22  16 05 58.327   +08 15 57.14  .03458 1.0398 150.3 20.6  459 106
2026 05 09 23  16 06 42.333   +08 12 43.37  .03475 1.0399 150.3 20.6  470 106
2026 05 10 00  16 07 25.893   +08 09 31.10  .03492 1.0401 150.2 20.6  481 106
2026 05 10 01  16 08 09.013   +08 06 20.30  .03510 1.0402 150.2 20.7  492 106